Regional Weather Roundup
Issued by NWS Goodland, KS

Home | Current Version | Previous Version | Graphics & Text | Print | Product List | Glossary On
Versions: 1 2 3 4 5 6 7 8 9 10 11 12 13 14 15 16 17 18 19 20 21 22 23 24 25 26 27 28 29 30 31 32 33 34 35 36 37 38 39 40 41 42 43 44 45 46 47 48 49 50
000
ASUS43 KGLD 062208
RWRGLD

GOODLAND FORECAST AREA HOURLY WEATHER ROUNDUP
NATIONAL WEATHER SERVICE GOODLAND KS
300 PM MST TUE DEC 06 2016

...OFFICIAL OBSERVATIONS...

CITY           SKY/WX    TMP DP  RH WIND       PRES   REMARKS
GOODLAND KS    SUNNY     34  -6  18 CALM      29.95F
HILL CITY KS   SUNNY     37   4  25 W6        30.04S
IMPERIAL NEB   MOSUNNY   31  -1  25 N5        29.98R
MCCOOK NEB     SUNNY     35   2  24 NW10      30.01R
AKRON CO       PTSUNNY   28 -16  14 NE6       29.89F
BURLINGTON CO  SUNNY     33 -10  15 SE6       29.93F
LIMON CO       CLOUDY    27  -7  22 SE14      29.86F WCI  16
$$

...UNOFFICIAL OBSERVATIONS...

CITY           SKY/WX    TMP DP  RH WIND       PRES   REMARKS
COLBY KS       SUNNY     36   3  25 CALM      30.00S
LENORA KS        N/A     35  32  89 MISG        N/A
NORTON KS      SUNNY     36  -2  20 W7        30.02S
SHARON SPRINGS   N/A     33   1  26 CALM        N/A
TRENTON NEB      N/A     34  32  92 CALM        N/A
KIT CARSON CO    N/A     30   3  32 MISG        N/A
YUMA CO        FAIR      28 -13  16 CALM      29.92F
$$




USA.gov is the U.S. government's official web portal to all federal, state and local government web resources and services.